GFSGBSN_prec_cloud_087.txt.gz
Cloud_Cover
100 100 100 100 100 100 35 7 34 58 22 56 100 100 100 100 100 100 100 100 100 100 100 100 89 81 0 0 0 0 0 0 5 5 4 0 0 1 4 6 5 5 78 83 100 99 100
0 10 100 100 90 49 16 21 100 100 100 100 100 100 100 100 100 100 100 100 100 100 100 100 100 65 0 0 0 0 0 0 3 5 5 5 0 0 4 4 20 6 45 97 100 100 100
10 100 69 82 35 9 1 21 100 100 100 100 100 100 100 100 100 100 100 100 100 100 100 100 100 11 0 0 0 0 0 0 0 5 60 5 0 0 2 4 5 9 67 87 98 100 100
19 43 19 13 66 26 9 15 98 100 100 100 100 75 96 100 100 100 100 93 12 96 100 100 95 0 0 0 0 0 0 0 0 0 4 0 0 0 0 2 3 1 27 100 100 100 100
19 14 29 22 11 19 8 10 84 100 100 100 100 100 100 100 100 100 19 0 17 22 100 100 6 0 0 0 0 0 0 0 0 0 0 0 0 22 0 0 3 0 6 26 100 100 100
90 11 13 43 29 29 2 21 85 100 100 100 100 100 100 100 100 100 0 0 0 0 1 1 0 2 0 0 0 0 0 0 0 0 0 0 0 0 0 0 1 2 12 89 100 96 100
100 32 5 5 12 15 20 23 23 62 100 100 100 100 100 100 100 95 5 0 0 0 0 0 0 0 0 0 0 0 0 0 0 0 0 0 0 0 0 2 0 4 5 5 33 100 100
100 99 7 5 5 10 11 5 5 41 100 100 100 100 100 100 100 100 55 0 0 0 0 0 0 0 0 0 0 0 0 0 0 0 0 0 0 0 0 0 0 3 5 9 5 99 100
100 100 51 5 5 5 5 5 1 3 78 100 100 100 100 100 100 57 3 0 4 0 0 0 0 0 0 6 0 0 0 0 0 0 0 0 0 0 0 0 0 0 5 20 19 68 100
100 100 89 8 5 5 5 4 5 5 30 100 100 75 33 54 17 2 5 1 10 86 0 0 0 0 0 0 22 0 0 0 0 0 0 0 0 0 0 0 0 0 10 89 47 57 78
100 100 98 80 5 9 5 5 5 5 5 5 37 23 24 96 45 5 5 67 86 22 3 0 0 0 0 0 37 35 1 0 0 0 0 0 0 0 0 0 0 0 5 100 6 5 5
100 100 100 31 5 22 5 5 5 5 37 15 14 77 85 51 45 43 4 10 5 0 0 1 0 0 0 0 5 64 5 0 0 0 0 0 0 0 0 0 0 0 2 96 60 5 2
35 100 100 42 57 44 5 5 5 5 84 39 59 76 90 60 25 3 5 89 0 2 0 5 3 24 5 0 5 5 95 2 0 0 0 0 0 0 0 0 0 0 4 86 79 7 0
37 100 100 69 98 40 6 5 5 5 44 92 99 100 100 98 14 2 99 6 0 0 4 5 0 0 0 2 100 5 83 99 2 0 0 0 0 0 0 0 0 0 2 5 37 5 0
75 80 100 100 99 61 49 5 5 5 5 95 80 100 99 100 6 14 64 0 0 2 47 7 100 13 59 13 82 69 37 100 100 3 0 0 0 0 0 0 0 0 0 4 40 5 0
100 100 100 97 100 5 73 66 5 5 5 5 97 90 82 9 67 98 2 0 0 22 95 31 14 45 99 100 73 100 90 60 77 44 1 0 0 0 0 0 0 0 0 2 10 10 4
100 100 100 96 100 57 61 48 31 4 5 56 98 89 45 2 87 68 3 2 1 5 96 22 54 99 83 100 100 96 98 20 6 99 65 3 0 0 0 0 0 0 0 5 5 5 5
100 100 100 92 62 32 99 15 28 5 40 45 80 100 98 6 100 1 3 0 2 5 5 97 74 81 100 100 86 41 7 49 100 63 100 99 6 0 0 0 0 0 0 3 5 5 5
100 100 100 89 98 81 100 6 9 32 99 38 80 90 100 100 80 5 0 0 0 0 12 5 14 95 100 14 9 36 59 69 100 100 100 100 100 49 4 4 6 0 0 0 4 5 5
100 100 100 100 59 56 100 74 99 97 100 100 97 68 76 100 2 5 0 0 0 0 6 4 5 100 60 20 98 100 88 46 72 100 100 100 100 100 99 100 8 0 0 0 0 0 5
100 100 100 100 30 13 66 11 64 54 100 100 84 100 100 11 91 0 0 0 0 0 4 7 4 5 62 70 100 96 93 87 5 93 100 100 100 100 100 99 5 1 0 0 0 1 1
100 99 100 100 35 54 84 91 100 51 100 100 100 100 100 52 25 4 0 0 0 0 0 48 5 5 0 4 100 100 100 80 14 72 89 100 100 100 100 100 84 84 1 0 0 2 5
100 100 100 100 90 55 94 92 100 100 99 85 95 100 93 96 44 10 0 0 0 0 0 5 6 75 1 4 29 99 92 100 40 56 75 71 96 100 100 100 100 100 19 2 0 0 5
100 100 100 100 100 100 89 92 100 95 94 98 92 100 12 100 90 23 0 0 1 0 0 0 4 60 2 4 18 5 96 5 6 20 0 1 5 82 100 100 100 96 100 50 5 5 0
100 100 100 98 100 90 95 97 94 93 81 47 42 96 99 38 76 5 0 0 0 5 0 0 0 3 9 6 36 7 16 33 72 25 2 0 2 13 26 100 53 96 90 100 92 53 1
100 100 100 98 100 78 59 100 7 88 96 89 97 99 44 54 98 9 1 0 0 0 0 0 0 0 17 18 5 9 6 5 5 5 0 0 0 4 20 36 100 100 100 100 100 71 36
100 100 100 94 100 95 53 89 29 81 50 100 78 6 38 21 99 11 3 0 0 0 0 0 0 0 0 0 1 3 0 0 1 2 5 0 3 1 4 2 5 75 100 100 100 29 5
100 100 100 87 100 99 44 81 30 39 36 96 1 5 100 38 85 35 5 2 3 0 0 0 0 0 0 0 0 0 0 1 0 0 0 0 0 0 0 0 0 0 15 77 100 100 78
100 100 100 94 100 95 20 10 23 97 58 33 11 65 99 70 71 95 5 4 5 5 5 0 0 0 0 0 0 0 0 0 0 0 0 0 0 0 0 0 0 0 0 0 20 100 100

GFSGBSN_prec_cloud_093.txt.gz
Cloud_Cover
93 7 9 12 12 53 99 100 78 100 100 100 100 100 100 100 100 100 100 100 100 100 100 100 7 6 0 0 0 0 0 0 0 0 5 5 1 33 10 25 7 5 22 5 10 100 100
100 100 63 100 100 45 93 100 100 100 100 100 100 100 100 100 100 100 100 100 100 100 100 100 19 7 0 0 0 0 0 0 0 0 5 5 5 5 2 99 42 6 28 6 19 100 75
100 91 80 55 30 75 100 100 100 100 100 100 100 100 100 100 100 99 100 98 100 100 100 100 16 4 0 0 0 0 0 0 0 0 5 5 5 3 5 75 100 83 7 40 42 100 100
100 100 100 48 99 100 100 100 100 100 85 100 100 100 100 100 100 100 58 97 100 100 100 99 12 0 0 0 0 0 0 0 0 0 2 5 5 5 5 100 93 99 46 47 17 100 100
100 100 100 46 67 47 75 100 100 100 100 96 99 100 100 100 100 42 59 82 78 100 70 13 0 0 0 0 0 0 0 0 0 0 0 5 5 4 5 99 99 100 99 66 100 100 100
100 100 100 34 26 62 6 33 68 100 100 100 100 100 100 100 100 100 1 0 13 59 11 0 0 0 0 0 0 0 0 0 0 0 0 1 44 11 5 94 100 100 99 75 100 79 100
100 100 100 83 26 30 6 5 26 47 100 59 100 100 100 100 100 100 3 0 0 0 0 0 0 0 0 0 0 0 0 0 0 0 0 0 5 80 97 5 96 100 96 14 95 100 100
100 100 100 100 60 13 23 5 10 35 53 21 6 100 100 100 100 100 15 20 14 9 6 4 0 0 0 0 0 0 0 0 0 0 0 0 0 80 36 5 5 89 100 71 75 96 100
100 100 100 100 100 16 5 5 5 13 13 8 16 100 100 100 100 25 5 98 99 100 100 99 14 3 0 0 0 0 0 0 0 0 0 0 0 1 78 55 70 10 25 89 61 100 100
100 100 100 100 100 5 5 4 5 5 8 5 12 100 100 100 9 1 59 100 100 100 100 100 52 49 3 0 0 0 0 0 0 0 0 0 0 0 1 99 98 96 5 43 76 100 100
100 98 100 100 100 5 5 4 5 5 5 5 15 100 100 96 0 1 5 100 100 100 100 100 100 95 5 0 0 0 3 2 0 0 0 0 0 0 0 1 100 100 12 5 6 100 100
100 100 100 100 94 15 5 5 5 5 8 16 59 100 99 30 2 0 14 98 100 100 100 100 100 100 24 2 0 0 0 2 2 0 0 0 0 0 0 6 34 30 78 78 71 100 100
100 100 100 100 100 24 5 5 5 5 5 18 69 100 75 0 0 0 3 5 27 100 100 100 100 99 21 5 4 0 0 0 3 3 0 0 0 0 0 2 88 96 100 73 74 82 100
100 88 100 100 100 5 5 5 8 5 6 32 100 12 10 0 0 0 0 5 75 11 52 100 100 100 100 98 73 0 0 0 5 3 2 0 0 0 0 0 0 48 100 100 23 38 100
100 100 100 100 100 5 5 5 5 5 11 79 5 0 5 0 0 0 0 0 4 5 5 10 7 8 94 5 13 5 5 3 6 6 32 0 0 0 0 0 0 0 0 42 89 6 2
100 100 100 100 100 2 5 7 5 7 73 98 5 2 5 0 0 0 0 3 3 3 4 86 54 5 9 0 0 5 15 4 66 100 24 15 0 0 0 0 0 0 0 4 92 80 5
100 100 100 100 100 43 1 5 5 83 96 6 5 4 5 0 0 0 0 0 0 0 0 24 88 73 15 4 0 38 89 70 75 91 100 100 6 0 0 0 0 0 0 0 10 5 5
100 100 100 100 100 88 5 56 51 100 76 1 5 5 5 3 0 0 0 0 0 0 0 4 38 100 10 5 5 5 77 15 71 100 100 100 99 5 0 0 0 0 0 0 0 2 4
100 100 100 100 100 93 5 100 86 78 100 25 4 5 2 0 0 0 0 0 0 0 0 0 5 14 96 100 40 90 63 53 74 100 100 100 100 56 4 0 0 0 0 0 0 0 0
100 100 100 100 100 100 84 25 5 100 77 6 4 11 5 0 0 5 0 0 0 0 0 0 0 5 90 100 100 100 100 25 100 98 100 100 100 100 60 1 0 0 0 0 0 0 0
100 100 100 100 100 100 86 5 7 9 8 5 5 5 2 0 14 13 0 0 0 0 0 0 0 5 34 82 100 100 100 100 39 66 100 100 100 100 100 69 0 0 0 0 0 0 0
100 100 100 100 100 100 96 65 6 5 7 7 5 5 0 0 2 8 1 5 0 0 0 0 2 0 0 9 78 100 100 100 100 100 73 100 100 100 100 100 100 0 0 0 0 0 0
97 100 100 100 100 100 100 36 5 5 5 5 5 5 5 5 58 5 5 5 0 0 0 0 5 3 2 91 60 100 100 100 100 100 100 96 100 100 100 99 100 100 4 0 0 0 0
85 100 100 100 100 100 100 7 5 5 62 6 5 5 5 5 14 5 22 5 0 0 0 0 5 17 5 0 93 91 100 100 100 100 51 72 100 100 100 96 64 94 100 72 0 0 0
10 93 100 100 100 100 100 26 6 5 5 6 5 5 5 92 66 4 83 6 0 0 0 0 3 5 0 0 0 8 100 92 81 100 72 26 9 100 100 27 34 90 94 92 100 73 1
100 100 100 100 100 100 100 47 8 7 5 5 5 8 5 16 13 100 12 14 0 0 0 0 0 0 0 16 36 4 12 43 91 90 72 96 16 5 92 98 12 5 5 5 27 54 99
100 100 100 100 100 100 100 85 8 94 5 8 19 26 20 5 41 100 14 43 4 0 0 0 0 0 0 0 0 2 0 0 4 40 8 46 32 5 5 5 52 6 5 4 4 5 5
100 100 100 100 100 100 100 92 91 82 5 32 79 50 44 14 100 100 22 69 5 1 0 0 0 0 0 0 0 0 0 0 0 0 0 0 1 5 5 5 0 1 1 0 0 0 1
100 100 100 100 100 100 100 100 100 99 5 5 52 75 35 21 100 100 48 96 5 5 0 0 0 0 0 0 5 5 1 0 0 0 0 0 0 0 2 2 0 0 0 0 0 5 3

GFSGBSN_prec_cloud_096.txt.gz
Cloud_Cover
99 100 61 68 67 98 100 100 100 100 100 100 100 63 100 100 100 100 100 100 100 62 100 64 15 0 0 0 0 0 0 0 0 0 0 0 0 7 89 16 5 79 100 98 100 99 56
69 100 100 42 27 15 8 100 100 100 100 100 100 100 99 72 95 100 100 100 100 100 95 7 6 0 0 0 0 0 0 0 0 0 0 0 0 5 36 15 33 79 100 96 100 47 100
100 100 11 17 5 5 13 100 100 100 100 100 100 100 100 100 100 100 100 92 68 100 66 74 9 0 0 0 0 0 0 0 0 0 0 0 1 2 6 82 22 88 85 100 100 43 93
100 100 75 24 23 5 43 62 84 85 97 100 100 100 100 100 100 100 26 0 86 77 53 5 0 0 0 0 0 0 0 0 0 0 0 2 0 10 5 90 97 100 98 91 79 86 78
100 100 100 11 14 21 5 19 56 42 84 31 94 85 60 42 100 100 18 8 95 93 9 0 0 0 0 0 0 0 0 0 0 0 0 4 5 3 0 88 99 100 87 88 98 88 97
100 100 100 66 11 8 5 5 16 48 5 0 5 21 30 93 100 100 0 7 26 6 0 0 0 0 0 0 0 0 0 0 0 0 0 1 5 5 2 52 99 100 100 98 62 86 100
100 100 100 100 100 5 5 5 5 8 11 11 5 40 100 91 100 82 3 0 4 5 6 5 3 0 0 0 0 0 0 0 0 0 0 0 5 14 60 5 100 100 73 100 100 100 100
100 100 92 100 100 7 5 5 5 5 1 6 5 100 100 100 100 32 9 0 0 35 94 100 100 86 6 0 0 0 0 0 0 0 0 0 0 83 39 5 65 100 100 98 93 99 87
100 97 100 100 100 5 5 5 5 5 0 0 3 100 100 100 83 22 0 0 2 68 87 100 100 100 52 0 0 0 0 0 0 0 0 0 0 4 78 92 100 100 100 98 80 93 100
100 100 95 100 100 5 5 5 5 4 0 5 6 100 100 83 47 0 0 0 1 5 30 100 100 100 92 16 2 0 0 0 0 0 0 0 0 0 16 100 100 100 90 82 89 58 100
99 85 100 98 100 0 3 4 0 0 3 0 47 100 100 95 0 0 0 0 5 6 88 87 100 100 100 97 5 0 0 0 0 0 0 0 0 0 0 82 100 97 94 89 21 99 100
100 84 100 100 99 0 0 0 0 0 0 2 66 100 99 28 0 0 0 0 2 43 89 10 96 100 100 27 5 0 0 0 0 0 0 0 0 0 0 0 94 58 98 100 55 100 100
100 75 100 100 100 9 0 0 0 0 0 10 100 100 58 0 0 0 0 0 3 72 78 68 31 100 100 88 5 3 0 0 0 0 0 0 0 0 0 0 1 81 75 79 91 87 100
100 100 100 100 100 60 0 0 0 0 0 67 100 18 5 0 0 0 0 0 0 24 100 100 72 99 100 100 52 5 5 0 0 0 2 0 0 0 0 0 0 3 8 92 98 86 100
100 100 100 100 100 89 0 0 0 0 16 100 35 5 1 0 0 0 0 2 0 0 5 36 99 86 100 100 88 5 5 6 3 5 10 5 0 0 0 0 0 0 46 26 80 100 100
100 100 100 97 100 100 4 0 0 0 76 32 2 13 0 0 0 0 1 0 0 0 0 1 44 14 100 100 100 98 97 69 100 5 5 31 7 0 0 0 0 0 0 63 29 100 94
100 100 100 67 99 100 24 1 0 4 4 6 5 0 0 0 0 0 5 3 0 0 0 1 5 54 10 45 53 100 98 88 12 30 26 15 100 9 0 0 0 0 0 0 5 5 92
100 99 100 100 100 100 45 5 4 11 28 40 3 2 0 0 3 0 4 0 0 0 0 1 13 82 5 4 8 100 100 100 10 2 12 96 100 71 0 0 0 0 0 0 0 5 5
100 100 100 100 100 100 74 66 96 100 18 5 5 0 0 0 5 1 0 0 0 0 0 2 5 15 18 5 49 44 64 91 8 93 20 82 100 100 53 0 0 0 0 0 2 5 41
100 100 100 100 100 100 99 100 100 100 19 12 0 1 0 0 0 0 0 0 0 0 0 0 0 4 100 42 99 70 21 45 86 96 42 85 72 88 100 43 2 0 0 0 0 0 21
100 96 100 100 100 100 100 100 100 100 27 13 0 0 0 0 0 0 0 0 0 0 0 0 0 64 87 95 80 95 83 100 97 34 100 99 76 98 100 28 1 4 0 0 0 1 54
100 100 100 100 100 97 100 100 100 94 12 0 2 5 0 0 0 1 2 0 5 0 0 0 3 40 32 86 44 95 97 99 100 100 100 100 100 97 100 75 81 0 0 0 0 0 0
68 73 100 100 100 89 100 100 91 26 25 3 1 5 5 5 0 3 1 2 0 0 0 0 0 3 1 3 26 80 100 100 100 100 100 91 91 100 99 100 100 90 0 1 0 0 0
58 5 88 100 100 99 100 100 70 60 44 5 5 5 5 5 3 4 5 77 0 4 0 0 0 0 1 0 59 74 78 100 100 100 82 100 34 97 100 96 100 100 92 7 0 0 0
100 42 5 64 100 100 100 100 9 9 8 9 8 16 55 18 5 5 5 100 5 0 0 0 0 0 0 0 1 100 100 60 100 100 100 100 46 66 90 99 100 100 95 100 82 26 0
100 62 85 44 100 100 100 100 100 100 6 80 22 93 84 98 9 5 100 100 31 4 0 0 0 0 1 5 5 89 100 100 100 100 98 66 86 43 100 100 100 90 100 100 100 89 49
100 100 100 100 100 100 100 100 100 100 82 87 100 82 40 62 17 6 89 100 30 8 2 0 0 0 0 0 5 5 6 69 60 30 98 82 17 5 66 98 25 5 5 55 100 42 42
100 100 100 100 100 100 100 100 100 93 74 94 100 87 88 17 35 6 90 100 11 6 5 1 0 0 4 5 5 2 2 1 0 14 94 98 83 100 4 34 20 26 5 5 28 94 33
100 100 100 100 100 100 100 100 100 100 100 100 100 100 100 100 36 17 87 100 94 5 10 5 4 0 5 64 50 4 0 0 1 3 0 1 7 8 0 5 53 10 5 5 5 5 7

GFSGBSN_prec_cloud_102.txt.gz
Cloud_Cover
100 26 8 46 10 1 2 9 10 6 3 91 23 11 2 40 52 26 14 0 1 0 12 8 9 0 0 0 0 0 0 0 0 0 0 0 0 4 100 100 91 100 100 100 100 100 14
100 100 22 10 21 6 0 3 4 9 18 15 18 27 14 36 23 12 11 1 0 0 13 3 2 0 0 0 0 0 0 0 0 0 0 0 0 0 73 25 100 78 43 97 100 97 67
100 100 86 13 22 4 0 0 5 0 0 0 0 1 13 23 18 21 7 7 13 18 0 1 12 0 0 0 0 0 0 0 0 0 0 0 0 0 0 70 86 10 97 97 11 99 85
100 100 100 24 8 11 0 0 0 0 0 0 4 3 4 18 22 3 0 0 4 12 5 9 8 0 0 0 0 0 0 0 0 0 0 0 0 0 14 28 50 43 92 0 18 19 88
100 100 100 100 15 0 0 0 0 0 0 0 1 5 28 5 14 0 0 0 0 2 6 0 0 0 0 0 0 0 0 0 0 0 0 0 0 0 0 63 53 44 15 3 13 99 66
100 100 100 100 96 0 0 0 0 0 0 0 0 0 0 1 0 0 0 0 0 18 17 0 0 0 0 0 0 0 0 0 0 0 0 0 0 0 0 98 80 97 90 8 4 77 11
100 93 66 100 100 0 0 0 0 0 0 0 0 0 0 0 0 0 4 0 0 0 0 0 0 0 0 0 5 1 0 0 0 0 0 0 0 0 0 27 95 47 100 91 62 84 29
100 79 39 100 100 3 0 0 0 0 0 0 0 0 1 0 0 0 5 0 0 0 0 0 0 0 72 10 64 10 0 0 0 0 0 0 0 0 5 98 26 38 100 100 100 100 100
100 100 100 100 100 62 0 0 0 0 0 0 0 0 0 0 4 33 0 0 0 0 0 2 0 0 91 96 98 97 5 0 0 0 0 0 0 2 5 92 87 100 92 100 100 100 100
100 100 100 100 100 87 0 0 0 0 0 0 0 0 0 1 15 0 0 0 0 0 5 75 5 2 94 76 99 100 90 1 0 0 0 0 0 2 92 99 24 100 100 100 100 100 100
100 100 96 100 100 97 0 0 0 0 0 0 0 81 1 32 0 0 0 0 0 0 96 3 1 64 100 69 37 69 92 5 0 0 0 0 0 0 12 99 100 98 5 100 100 100 100
100 100 100 95 100 100 89 2 0 0 0 0 0 5 98 2 0 0 0 0 0 59 89 81 5 6 100 100 100 79 5 19 2 0 0 0 0 0 0 87 77 100 98 100 100 100 100
100 100 100 100 100 100 99 20 0 0 0 0 0 3 73 0 0 0 0 0 70 88 4 100 54 47 99 100 46 100 95 62 3 0 0 0 0 0 0 28 46 100 100 100 100 100 100
100 100 100 100 100 100 100 68 0 0 0 0 0 72 0 4 4 0 0 5 100 47 99 2 10 5 72 100 100 100 100 75 30 5 2 0 0 0 0 0 12 100 97 100 100 100 100
48 100 100 99 100 100 100 79 0 0 0 0 24 0 4 5 39 0 0 90 62 99 2 0 52 99 100 100 100 100 99 100 64 16 3 93 10 0 0 0 3 100 11 100 100 100 100
100 100 89 97 100 100 83 65 0 0 0 0 0 0 6 100 62 0 0 27 97 0 0 0 10 18 100 100 100 100 100 100 100 93 5 97 22 0 3 1 1 23 97 93 100 100 100
100 100 62 98 98 100 24 32 0 0 4 11 1 0 100 100 0 0 39 49 16 0 0 0 0 4 17 96 100 100 100 100 52 44 6 72 87 5 72 4 0 0 0 7 86 100 100
84 100 100 32 47 100 65 17 0 0 13 54 0 10 83 2 0 0 93 47 0 5 0 0 0 0 1 4 63 100 100 100 98 49 5 27 97 100 77 74 0 0 3 5 5 99 100
8 99 100 24 100 71 100 100 12 4 0 1 5 29 8 0 1 98 89 41 0 0 0 0 0 10 4 41 99 100 100 100 100 100 84 0 0 5 44 92 74 0 0 5 3 96 100
80 5 100 92 100 99 100 36 8 4 3 13 5 54 23 5 10 76 65 5 5 5 0 0 0 2 0 88 99 100 100 81 99 41 53 9 0 4 87 88 69 66 0 5 5 28 100
100 100 36 3 11 67 100 26 30 4 5 13 5 92 94 100 38 13 5 18 13 5 2 0 0 1 5 100 85 100 85 19 52 39 67 47 4 5 97 34 82 10 58 0 5 0 30
100 100 100 64 6 30 99 99 89 23 18 42 100 93 100 100 100 73 5 5 5 8 0 5 2 5 1 12 57 98 88 100 96 4 22 68 5 39 0 4 4 6 70 2 3 5 81
100 100 100 100 100 100 100 99 70 19 54 100 100 100 100 100 100 74 92 99 42 48 2 0 0 0 7 52 38 100 76 100 30 69 69 20 81 21 17 81 74 100 100 100 44 0 18
100 96 100 100 100 100 100 100 100 100 100 100 100 100 100 100 100 74 64 47 97 100 35 0 0 0 4 0 0 24 89 26 3 5 4 13 58 5 73 76 24 83 5 20 60 89 97
100 85 100 100 100 100 100 100 100 100 100 100 100 100 100 100 100 65 27 100 100 100 100 0 0 0 0 0 1 52 61 100 90 100 43 69 87 83 100 100 92 96 93 100 100 100 95
64 100 100 100 100 100 100 100 100 100 100 100 100 100 100 100 100 100 93 100 100 100 87 2 0 0 0 1 64 51 90 100 84 100 100 100 100 100 100 100 100 100 100 99 61 100 72
65 100 100 100 100 100 91 100 100 100 100 100 100 100 100 100 100 100 100 100 100 100 88 4 0 0 0 18 99 91 100 100 100 87 100 100 100 100 100 100 100 100 100 100 100 80 100
100 100 100 98 100 100 100 74 100 100 100 100 100 100 100 100 100 100 100 100 100 100 100 25 36 4 4 30 86 98 99 100 100 100 100 95 100 100 100 100 100 100 100 100 91 97 69
100 100 97 97 100 100 92 100 100 100 100 100 100 100 100 100 100 100 100 100 100 100 100 100 55 27 91 88 80 57 83 90 84 32 94 77 100 100 100 100 100 100 100 100 100 100 100

GFSGBSN_prec_cloud_105.txt.gz
Cloud_Cover
100 99 18 21 18 21 0 11 42 23 20 53 19 26 29 24 22 18 19 20 2 0 14 27 26 2 0 0 0 0 0 0 0 0 0 0 0 0 100 100 100 100 100 100 100 100 100
100 100 67 18 20 12 0 0 23 2 0 0 0 2 12 24 26 31 32 0 0 8 23 26 23 0 0 0 0 0 0 0 0 0 0 0 0 0 81 99 100 100 83 100 100 100 100
100 100 100 53 14 3 0 0 0 0 0 0 0 8 17 26 31 28 13 0 0 21 19 13 21 0 0 0 0 0 0 0 0 0 0 0 0 0 0 47 99 100 100 100 100 100 100
100 100 100 100 40 0 0 0 0 0 0 0 0 0 10 20 33 21 0 0 0 0 24 24 22 0 0 0 0 0 0 0 0 0 0 0 0 0 0 74 63 27 6 94 100 100 100
100 100 100 100 100 0 0 0 0 0 0 0 0 0 0 7 0 0 0 0 0 0 14 0 0 0 0 0 0 0 0 0 0 0 0 0 0 0 0 0 86 80 4 13 96 100 100
100 100 22 100 100 0 0 0 0 0 0 0 0 0 0 0 0 0 0 0 0 0 0 0 0 0 0 0 0 0 0 0 0 0 0 0 0 0 0 4 5 34 45 67 98 100 100
85 58 100 100 100 41 0 0 0 0 0 0 0 0 0 0 0 0 0 0 0 0 0 0 0 0 0 0 0 0 0 0 0 0 0 0 0 0 0 4 5 5 87 100 98 100 100
100 100 100 100 100 100 0 0 0 0 0 0 0 0 0 0 0 3 50 0 0 0 0 0 0 0 0 0 0 1 0 0 0 0 0 0 0 0 0 65 100 34 71 100 90 100 100
100 100 100 100 100 100 0 0 0 0 0 0 0 0 14 0 9 33 0 0 0 0 0 0 0 0 0 0 0 25 4 5 0 0 0 0 0 0 2 85 75 100 89 89 100 100 100
100 100 100 100 100 100 15 0 0 0 0 0 0 0 0 83 9 0 0 0 0 0 0 1 0 0 0 0 19 66 90 99 5 0 0 0 0 0 13 64 56 100 100 96 100 100 100
100 100 100 100 100 100 100 98 0 0 0 0 0 0 0 72 0 0 0 0 0 0 0 0 0 0 0 2 68 99 87 100 26 0 0 0 0 0 1 100 6 99 100 100 100 91 100
100 100 100 100 100 100 100 100 20 0 0 0 0 0 38 0 1 0 0 0 0 3 0 85 5 0 0 61 73 100 100 100 80 2 0 0 0 0 4 95 80 9 100 100 100 94 100
7 93 100 100 100 100 100 100 47 0 0 0 0 0 85 0 0 0 0 24 1 3 61 76 1 18 1 32 92 100 50 100 82 1 0 0 0 0 11 89 96 5 90 100 100 100 100
95 100 76 100 100 100 100 91 0 0 0 0 0 8 0 0 0 1 98 6 91 2 86 94 0 19 97 92 100 100 100 100 100 5 0 0 0 0 0 2 40 0 60 100 100 100 100
100 100 100 86 87 100 100 0 0 0 0 0 1 0 0 0 0 96 21 5 5 2 6 0 0 60 38 39 100 100 100 100 100 100 8 8 49 16 0 0 0 1 4 100 100 100 100
33 95 100 50 34 100 100 12 0 0 0 0 0 0 0 0 1 4 0 0 6 12 0 0 0 44 61 97 100 100 100 100 98 71 99 5 1 5 0 1 0 8 12 14 100 100 100
0 25 100 100 91 85 100 89 90 0 0 5 2 0 0 0 0 0 0 32 28 14 0 0 1 0 48 7 54 100 100 95 100 98 80 12 6 52 5 28 0 5 0 5 100 100 100
34 0 55 100 100 100 100 100 53 1 0 0 0 0 0 0 3 3 9 68 43 5 0 0 5 0 0 63 21 100 100 100 90 100 5 2 5 7 9 97 6 0 1 2 6 100 100
100 100 15 31 93 98 100 100 8 7 5 5 5 5 3 2 4 16 96 84 99 26 0 6 66 2 0 5 73 3 100 100 100 100 94 5 16 8 31 54 100 16 0 0 0 100 100
100 100 100 66 5 31 79 100 93 60 16 13 5 20 14 9 39 96 58 100 100 8 39 83 99 5 0 29 4 0 14 100 81 86 100 89 14 64 76 56 11 39 18 1 0 71 100
100 100 100 100 98 7 5 93 100 88 99 87 54 20 92 100 100 88 100 100 98 38 75 94 91 23 60 86 53 41 100 100 100 92 100 100 99 99 100 99 100 12 11 80 2 0 100
100 100 100 100 100 94 5 16 100 100 100 100 100 100 100 100 100 65 96 100 91 5 94 16 100 43 36 64 16 100 100 100 100 99 100 100 100 62 5 50 72 20 100 35 2 0 100
100 100 76 95 100 100 100 100 100 100 100 100 100 100 100 100 100 62 94 77 93 100 100 25 100 15 8 31 5 98 100 100 100 91 100 95 12 6 7 6 8 100 32 80 5 2 84
100 97 86 95 100 100 100 100 100 100 100 100 100 100 100 100 100 62 99 89 100 100 100 78 90 5 0 0 2 14 100 100 100 100 63 96 12 55 21 86 100 37 100 100 28 8 0
100 88 76 100 100 100 100 99 100 100 100 100 100 100 100 100 100 100 100 55 99 100 100 100 94 5 0 0 0 4 44 87 100 88 81 7 48 5 41 8 58 60 99 27 5 5 0
100 54 95 94 100 100 100 100 10 45 98 100 100 100 100 100 100 100 100 93 100 100 100 100 100 9 0 0 4 25 4 5 9 100 99 5 75 32 5 94 84 88 75 100 77 72 23
100 100 88 100 100 100 100 100 72 29 100 100 100 100 100 100 100 100 100 100 100 100 100 98 100 54 1 0 16 100 100 90 100 100 100 82 97 71 5 64 99 99 98 100 100 73 68
94 100 100 100 98 99 100 100 82 87 100 66 100 100 100 100 100 100 100 100 100 100 100 100 100 25 4 7 78 94 34 53 83 100 92 100 99 93 48 100 100 100 100 88 100 100 100
94 100 100 100 100 100 100 100 64 58 100 92 90 100 100 100 100 100 100 100 100 100 98 100 100 82 5 29 65 47 70 98 86 70 9 100 100 96 100 100 100 100 100 100 100 100 92

GFSGBSN_prec_cloud_108.txt.gz
Cloud_Cover
100 100 85 8 12 1 13 0 14 12 14 14 12 10 18 20 70 89 99 50 23 20 25 19 22 6 2 0 0 0 0 0 0 0 0 0 2 71 77 100 100 100 100 100 100 100 85
100 100 100 84 3 2 0 0 0 0 1 5 4 17 17 34 94 59 69 26 5 20 27 18 14 3 2 0 0 0 0 0 0 0 0 0 2 33 67 70 100 100 83 100 100 100 100
100 100 100 100 98 0 0 0 0 0 0 0 0 0 0 20 18 20 18 3 0 1 28 32 2 0 0 0 0 0 0 0 0 0 0 0 0 5 5 74 100 100 100 100 100 100 100
99 93 100 100 100 0 0 0 0 0 0 0 0 0 0 14 18 0 0 0 0 2 19 33 9 0 0 0 0 0 0 0 0 0 0 0 0 25 1 4 100 100 100 100 100 100 100
72 45 34 100 100 0 0 0 0 0 0 0 0 0 0 3 11 0 0 0 4 0 14 0 1 0 0 0 0 0 0 0 0 0 0 0 0 0 5 4 82 100 73 100 100 100 100
99 100 100 100 100 85 0 0 0 0 0 0 0 0 0 0 3 0 0 0 0 0 0 0 0 0 0 0 0 0 0 0 0 0 0 0 0 0 0 0 3 48 76 100 100 100 100
100 100 100 100 100 100 19 0 0 0 0 0 0 0 0 18 11 0 2 0 0 0 0 0 0 0 0 0 0 0 0 0 0 0 0 0 0 0 0 0 80 94 30 31 100 100 100
100 100 100 100 100 100 71 0 2 0 0 0 0 0 0 0 0 82 80 0 0 0 0 0 0 0 0 0 0 0 0 0 0 0 0 0 0 0 0 0 87 58 8 73 100 100 100
100 100 100 100 100 100 100 100 10 1 0 0 0 0 0 0 0 34 0 0 0 0 0 0 0 0 0 0 0 0 0 0 0 0 0 0 0 0 0 1 3 5 100 97 75 97 100
100 100 100 100 100 100 100 100 95 0 0 0 0 0 0 79 0 0 0 0 0 0 0 0 0 0 0 0 0 0 0 0 0 2 2 0 0 0 1 6 30 13 52 66 100 93 100
92 100 100 100 100 100 100 100 100 0 0 0 0 0 0 54 11 0 0 0 0 0 0 0 0 0 0 0 0 0 0 6 44 49 6 3 0 0 1 14 85 8 20 72 68 92 100
23 40 87 99 100 100 100 100 98 0 0 0 0 0 14 1 8 0 0 0 0 4 2 2 0 0 0 0 0 0 5 95 84 45 100 52 0 0 0 5 74 5 5 75 100 94 83
100 100 100 32 100 100 100 100 2 0 0 0 0 0 69 0 0 0 0 0 3 3 2 2 1 0 1 4 1 1 68 100 100 100 100 98 0 0 2 5 5 18 5 81 100 84 87
28 15 100 99 5 100 100 100 0 0 0 1 0 14 2 0 4 0 0 0 2 0 0 0 2 0 94 5 46 76 99 100 100 100 100 100 1 16 5 4 4 5 38 75 100 64 89
0 0 93 100 100 100 100 100 99 21 0 0 3 0 0 0 0 0 0 2 5 0 5 6 4 0 0 5 41 30 100 100 100 100 100 100 12 58 65 5 2 0 3 74 100 32 100
4 0 50 100 100 100 100 100 100 2 0 0 6 0 0 0 2 0 4 5 8 5 3 99 9 0 5 57 23 17 97 100 100 76 5 90 5 0 3 69 1 0 0 3 100 90 100
100 100 65 17 100 100 100 100 99 5 5 20 0 0 3 3 3 5 5 5 11 39 63 100 1 0 18 5 13 99 62 100 100 100 18 56 0 2 2 0 0 0 0 4 5 50 100
100 100 100 100 34 78 100 100 100 73 2 5 5 5 5 5 5 5 80 98 100 100 100 100 2 0 11 11 9 3 37 100 100 100 100 92 1 100 15 79 0 0 0 87 32 52 100
100 100 100 100 100 100 36 100 100 93 78 50 5 5 7 5 5 83 100 100 100 100 100 100 3 3 96 5 3 0 0 81 100 100 100 82 52 96 100 100 45 14 22 96 26 18 100
100 100 100 100 100 100 89 5 100 89 56 16 71 57 83 100 100 89 100 100 100 100 100 98 5 5 2 5 0 0 0 1 75 100 100 100 100 65 100 62 7 4 0 23 48 5 29
100 100 100 100 99 100 100 13 100 100 8 8 5 8 95 100 100 100 100 100 100 100 90 98 74 96 51 0 2 0 0 4 2 18 100 100 100 63 25 9 59 83 53 0 1 0 100
99 100 100 88 58 100 100 99 100 100 55 73 90 42 100 100 100 100 100 100 100 100 24 5 14 100 100 41 0 0 9 5 17 100 100 57 100 98 100 89 64 53 4 0 0 0 100
100 100 100 62 24 100 100 100 100 100 100 67 100 15 40 100 100 100 100 100 100 100 99 68 94 100 100 22 1 0 96 11 69 100 100 56 100 94 100 100 100 70 99 78 46 0 10
100 100 100 100 100 100 100 100 100 100 100 99 100 42 24 100 37 90 91 100 100 100 91 89 100 100 25 4 12 0 5 100 100 100 78 30 75 47 84 100 100 98 77 97 23 0 0
100 100 100 100 100 100 100 100 100 100 100 100 100 50 63 99 100 77 95 100 100 100 100 100 100 100 98 5 2 0 67 92 100 9 12 5 12 5 73 100 10 5 36 100 6 0 15
100 100 100 98 100 100 100 100 100 100 100 100 100 71 5 98 100 100 82 100 100 100 100 100 100 100 8 82 8 0 5 99 100 100 8 5 5 36 20 6 7 10 9 6 100 8 33
100 100 100 100 100 100 100 100 100 100 100 99 90 17 5 97 100 100 100 100 100 100 100 90 100 100 77 100 2 15 17 35 100 100 100 52 7 5 96 66 6 60 97 5 100 48 13
100 100 100 100 100 100 79 100 100 100 75 95 76 54 40 96 98 100 100 99 98 100 100 100 100 100 90 100 38 1 1 5 5 5 5 84 65 24 5 69 34 16 100 100 46 66 100
100 100 100 100 100 100 99 100 100 100 100 100 32 100 100 100 100 100 100 100 99 100 100 100 100 100 100 100 11 2 1 5 4 76 5 68 76 100 100 72 36 75 27 100 100 100 77

GFSGBSN_prec_cloud_111.txt.gz
Cloud_Cover
100 100 100 98 16 0 0 0 0 0 0 2 0 6 46 82 86 92 83 100 91 70 90 20 24 22 1 0 0 0 0 0 0 0 0 0 4 95 5 19 100 100 100 98 100 100 99
100 100 100 100 14 5 0 0 0 0 0 0 0 1 15 22 23 26 45 14 20 5 22 65 23 10 0 0 0 0 0 0 0 0 0 0 0 10 7 63 99 100 100 74 100 100 100
100 100 100 100 74 4 0 0 0 0 0 0 0 0 0 24 22 10 19 1 4 21 25 76 22 4 0 0 0 0 0 0 0 0 0 0 0 2 5 6 79 100 100 99 100 100 100
4 89 100 100 100 12 0 0 0 0 0 0 0 0 0 17 21 18 0 0 7 20 31 46 8 0 0 0 0 0 0 0 0 0 0 0 0 0 6 10 74 94 100 100 100 100 100
100 100 100 100 100 99 1 0 0 0 0 0 0 0 0 16 18 4 3 16 9 10 14 2 0 0 0 0 0 0 0 0 0 0 0 0 0 0 7 5 10 8 100 100 93 100 100
100 100 100 100 100 100 55 0 19 7 0 0 0 0 0 0 4 10 64 0 0 0 2 2 0 0 0 0 0 0 0 0 0 0 0 0 0 0 0 0 2 8 100 100 100 100 100
100 100 100 100 100 100 100 99 64 33 15 0 0 0 0 0 0 43 15 0 0 0 0 0 0 0 0 0 0 0 0 0 0 0 0 0 0 0 0 0 0 86 100 100 100 100 100
100 100 100 100 100 100 100 100 100 56 29 5 0 0 0 0 3 99 41 0 0 0 0 0 0 0 0 0 0 0 0 0 0 0 0 0 0 0 0 0 0 54 100 93 100 100 100
100 99 100 100 100 100 100 100 100 100 2 1 0 0 0 0 0 18 0 0 0 0 0 0 0 0 0 0 0 0 0 0 0 0 0 0 0 0 0 0 4 8 20 95 100 100 100
2 0 99 100 100 100 100 100 100 95 0 0 0 0 0 34 0 0 0 0 0 0 0 0 0 0 0 0 0 0 0 0 0 0 0 0 0 0 0 0 6 10 56 100 84 100 100
100 95 12 38 99 100 100 100 100 9 0 8 3 0 0 26 0 0 0 0 0 0 0 0 0 0 0 0 0 0 0 0 0 0 0 0 0 0 0 0 67 10 88 94 88 100 100
63 34 98 100 28 100 100 100 100 31 15 7 10 29 48 6 0 0 0 0 0 0 0 0 0 0 0 0 0 1 0 0 0 0 20 40 11 0 1 68 5 11 6 58 15 96 100
0 0 49 100 100 73 100 100 100 100 27 1 11 47 87 0 0 0 0 0 0 0 0 0 0 0 1 5 0 3 5 0 0 28 100 100 89 88 26 13 5 2 2 4 2 59 100
79 0 2 100 100 100 100 100 100 100 2 7 38 48 4 4 0 0 0 0 0 0 0 0 0 0 78 75 0 0 11 69 2 30 98 82 85 100 100 53 5 5 0 4 5 100 48
100 100 88 6 100 100 100 100 100 95 0 29 10 0 0 0 0 0 0 0 0 0 0 0 2 10 49 92 2 0 5 5 5 75 100 100 95 83 98 30 4 24 2 31 5 77 67
100 100 100 100 39 69 94 100 100 100 2 16 3 4 5 1 0 0 2 5 0 3 4 19 10 100 14 96 5 5 2 20 14 98 100 100 99 56 42 5 0 3 100 44 5 98 64
100 100 100 100 100 100 37 100 100 100 1 22 5 5 0 5 5 3 3 5 5 58 75 100 12 6 100 94 1 8 5 4 5 70 100 100 100 98 53 4 0 0 0 0 0 18 99
100 100 100 100 100 100 100 23 100 100 60 9 5 8 5 5 5 5 5 5 75 100 100 36 5 30 100 85 71 99 99 92 55 87 100 100 100 85 100 68 0 0 2 3 4 11 67
100 100 100 100 100 100 100 84 47 100 100 59 5 16 5 5 11 17 91 95 97 100 100 94 100 33 11 4 27 100 100 86 27 100 87 100 100 100 100 65 55 43 5 0 0 5 4
100 100 100 100 100 100 100 100 61 100 100 47 34 67 95 44 100 63 100 100 100 100 100 6 100 100 12 5 57 100 69 0 83 57 100 100 100 100 100 76 41 4 5 3 1 5 0
100 100 100 100 89 97 100 100 100 100 100 15 87 22 41 97 100 16 88 100 100 100 100 98 93 27 5 5 69 42 0 0 3 2 46 100 100 100 100 100 92 76 5 4 0 5 0
100 100 100 100 100 100 100 100 100 100 76 94 98 100 58 100 100 28 91 100 80 99 100 100 100 100 34 28 72 29 0 0 0 5 99 100 100 100 100 100 99 97 3 0 0 0 0
100 100 100 100 100 98 100 100 100 100 58 91 100 100 70 42 64 96 100 100 91 56 100 75 83 81 55 76 94 0 0 0 4 100 87 80 100 100 100 100 98 19 1 0 0 83 64
100 100 100 100 100 100 100 100 100 100 100 100 100 100 99 53 44 88 99 80 100 93 99 100 98 30 6 19 100 1 0 0 33 100 100 80 100 100 100 100 100 98 12 0 55 2 7
100 100 100 100 100 100 100 100 100 100 100 100 100 100 100 100 78 91 100 39 100 100 100 100 99 13 5 90 86 5 3 0 26 100 100 99 100 100 100 100 74 100 17 71 100 2 0
100 100 100 100 100 100 100 100 100 100 100 100 100 100 100 100 91 100 92 100 100 100 89 100 100 94 14 100 31 16 3 0 37 93 92 100 100 49 98 76 26 100 100 100 100 76 0
100 100 100 100 100 100 100 100 100 100 100 100 100 100 100 99 45 100 72 100 94 100 100 31 100 100 6 100 5 62 2 1 5 13 86 35 34 5 48 89 29 100 100 100 50 2 3
100 100 100 100 100 100 100 100 100 100 100 86 100 100 100 100 47 100 87 100 100 100 100 86 100 100 14 98 5 69 1 5 2 6 94 96 72 5 2 62 71 89 97 100 97 100 98
100 100 100 100 100 100 100 100 100 100 100 100 78 9 88 100 95 100 100 100 100 100 100 95 100 82 100 84 5 5 5 5 1 5 12 100 66 54 49 3 18 84 5 6 90 98 100

GFSGBSN_prec_cloud_114.txt.gz
Cloud_Cover
100 100 100 86 22 7 7 2 0 0 0 0 2 7 17 30 19 15 22 40 9 98 46 28 22 24 4 0 0 0 0 0 0 0 0 0 0 5 5 22 97 100 100 100 100 100 100
95 100 100 100 86 13 12 1 0 0 0 0 0 0 2 22 26 17 21 28 28 28 28 31 24 8 0 0 0 0 0 0 0 0 0 0 0 0 5 20 72 98 100 100 100 100 100
95 100 100 100 100 80 20 10 0 0 0 0 0 0 0 12 2 14 1 21 29 33 30 33 11 1 0 0 0 0 0 0 0 0 0 0 0 0 3 21 5 6 100 100 100 100 100
100 100 100 100 100 100 35 21 47 11 0 0 0 0 0 0 0 7 11 74 68 56 24 25 0 0 0 0 0 0 0 0 0 0 0 0 0 0 0 5 2 5 100 100 100 100 100
100 100 100 100 100 100 100 100 100 98 46 11 0 0 0 0 7 12 60 49 15 28 17 0 0 0 0 0 0 0 0 0 0 0 0 0 0 0 0 1 5 25 100 100 100 100 100
100 100 100 100 100 100 100 100 100 100 91 32 0 0 0 0 0 26 67 0 0 0 2 0 0 0 0 0 0 0 0 0 0 0 0 0 0 0 0 0 0 1 100 100 100 100 100
100 100 100 100 100 100 100 100 100 100 46 31 8 0 0 0 0 78 13 0 0 0 0 0 0 0 0 0 0 0 0 0 0 0 0 0 0 0 0 0 0 0 95 100 100 100 100
38 1 82 100 100 100 100 100 100 100 74 6 15 4 0 0 0 0 1 0 0 0 0 0 0 0 0 0 0 0 0 0 0 0 0 0 0 0 0 0 0 0 60 100 100 100 100
66 9 8 10 80 100 100 100 100 100 12 5 26 35 17 0 0 0 0 0 0 0 0 0 0 0 0 0 0 0 0 0 0 0 0 0 0 0 0 0 0 0 46 100 100 100 100
99 100 97 62 9 60 100 100 100 100 71 38 38 46 45 45 0 0 0 0 0 0 0 0 0 0 0 0 0 0 0 0 0 0 0 0 0 0 0 0 0 0 0 100 100 100 100
1 0 17 100 100 74 98 100 100 100 100 78 12 53 78 45 0 0 0 0 0 0 0 0 0 0 0 0 0 0 0 0 0 0 0 0 0 0 0 0 0 0 4 58 100 100 100
100 33 18 100 100 100 100 100 100 100 100 28 15 84 98 18 0 0 0 0 0 0 0 0 0 0 0 0 1 4 0 0 0 0 0 0 0 0 0 0 0 1 5 4 100 100 100
100 100 81 20 97 100 100 95 100 100 100 7 18 100 98 0 0 0 0 0 0 0 0 0 0 0 0 0 0 0 0 0 0 0 0 0 0 0 0 2 3 4 5 3 1 100 100
100 100 100 100 24 86 100 100 100 100 100 6 89 100 8 5 0 0 0 0 0 0 0 0 0 0 0 0 0 1 0 4 0 0 0 0 0 1 5 48 31 43 3 0 0 59 100
100 100 100 100 100 100 22 97 51 65 100 0 33 0 0 0 0 0 0 0 0 0 0 0 0 3 8 21 5 0 5 0 0 2 0 0 5 4 15 90 67 5 0 1 2 5 100
100 100 100 100 100 100 100 93 27 64 68 6 0 0 0 0 3 2 3 0 0 0 0 0 7 83 100 100 5 2 0 2 1 3 0 0 5 94 72 93 14 87 11 16 5 3 100
100 100 100 100 100 100 100 100 44 74 28 1 0 0 0 0 3 5 5 5 0 1 4 5 14 100 100 29 5 5 5 2 5 9 0 0 4 90 91 98 44 100 5 82 32 20 26
100 100 100 100 100 100 100 100 99 100 69 10 5 5 5 5 15 6 72 30 7 81 96 5 5 6 74 93 5 5 5 5 21 100 5 1 7 99 100 35 84 98 89 4 74 6 5
100 100 100 100 100 100 100 100 100 100 100 91 58 22 44 5 84 75 95 86 100 100 100 43 52 17 95 55 9 65 5 3 36 63 9 5 5 99 87 36 85 41 98 0 80 57 0
100 100 100 100 100 100 100 100 100 100 100 30 82 69 53 5 94 82 100 100 100 100 100 100 99 16 100 100 6 5 5 6 41 4 1 3 6 85 100 27 99 100 100 15 92 54 1
100 100 100 100 100 100 100 100 100 100 100 41 47 98 49 7 68 100 100 100 100 79 100 100 54 28 100 84 86 5 5 5 49 2 0 1 100 100 100 100 100 100 100 46 13 50 6
100 100 100 100 100 100 100 100 100 100 100 59 66 100 82 16 90 81 100 100 100 64 99 98 21 83 97 36 5 5 5 37 4 0 0 2 6 100 100 100 100 100 100 43 0 28 6
100 100 100 100 100 100 100 100 100 100 100 96 98 86 62 54 98 94 100 100 99 100 62 96 83 100 100 18 8 5 73 25 0 2 5 30 30 89 96 100 100 100 100 91 0 62 100
100 100 100 100 100 100 100 100 100 100 100 100 100 100 91 99 77 100 100 100 99 68 82 99 87 100 100 74 5 5 72 1 3 1 5 99 90 67 100 100 75 100 100 78 5 3 39
100 100 100 100 100 100 100 100 100 100 100 100 100 100 96 98 100 77 100 100 100 100 100 58 100 97 100 89 54 5 5 3 0 5 100 25 97 97 100 96 100 100 100 100 90 5 1
100 100 100 100 100 100 100 100 100 100 100 100 100 100 100 100 100 90 100 100 100 100 21 81 93 42 100 15 31 5 5 2 0 4 4 100 55 98 100 92 100 100 100 100 100 100 5
100 100 100 100 100 100 100 100 100 100 100 100 100 100 100 100 100 100 100 100 100 100 47 100 92 96 100 100 98 5 5 1 0 1 4 98 100 21 99 100 100 100 100 100 100 100 94
100 100 59 100 100 100 100 100 100 100 100 100 100 100 100 100 79 79 99 100 100 65 90 100 100 94 100 100 68 5 23 3 0 0 0 2 27 20 5 6 99 100 100 100 100 100 100
100 100 41 100 100 100 100 100 100 100 100 100 100 100 100 89 43 77 100 100 100 100 100 100 100 100 100 95 30 90 40 5 0 5 0 5 5 5 6 5 43 100 100 100 100 100 100

GFSGBSN_prec_cloud_117.txt.gz
Cloud_Cover
91 99 100 100 93 61 14 15 0 0 0 0 0 0 1 14 14 18 20 19 16 86 77 31 26 8 0 0 0 0 0 0 0 0 0 0 0 0 0 0 2 96 100 100 99 80 99
100 100 100 100 100 100 29 32 12 4 0 0 0 0 0 0 14 19 8 16 30 32 51 26 12 5 0 0 0 0 0 0 0 0 0 0 0 0 0 0 0 89 100 46 99 71 100
100 100 100 100 100 100 100 100 100 92 85 19 0 0 0 0 0 9 4 39 100 67 20 29 1 0 0 0 0 0 0 0 0 0 0 0 0 0 0 0 0 5 100 100 100 100 100
100 100 100 100 100 100 100 100 100 100 100 91 40 1 0 0 0 0 37 100 98 75 22 16 0 0 0 0 0 0 0 0 0 0 0 0 0 0 0 0 0 0 34 100 100 100 100
100 100 100 100 100 100 100 100 100 100 100 90 33 26 0 0 0 0 99 5 6 24 5 0 0 0 0 0 0 0 0 0 0 0 0 0 0 0 0 0 0 0 0 54 100 100 100
100 100 100 100 100 100 100 100 100 100 100 4 28 35 25 2 0 29 17 0 0 0 0 0 0 0 0 0 0 0 0 0 0 0 0 0 0 0 0 0 0 0 0 4 100 100 94
25 14 61 100 100 100 100 100 100 100 100 8 22 54 61 25 1 5 10 0 0 0 0 0 0 0 0 0 0 0 0 0 0 0 0 0 0 0 0 0 0 0 0 0 99 100 98
100 98 43 6 0 100 100 100 100 100 100 100 100 100 97 69 10 0 0 0 0 0 0 0 0 0 0 0 0 0 0 0 0 0 0 0 0 0 0 0 0 0 0 2 45 100 100
34 15 98 100 100 34 79 99 100 100 100 100 100 100 100 88 2 0 0 0 0 0 0 0 0 0 0 0 0 0 0 0 0 0 0 0 0 0 0 0 0 0 0 3 4 100 100
100 33 27 100 100 100 88 57 100 100 100 100 100 83 100 95 0 0 0 0 0 0 0 0 0 0 0 0 0 0 0 0 0 0 0 0 0 0 0 0 0 0 0 0 6 100 100
100 100 100 100 100 100 84 100 100 100 100 100 98 97 100 87 0 0 0 0 0 0 0 0 0 0 0 0 0 0 0 0 0 0 0 0 0 0 0 0 0 0 0 0 3 98 100
100 100 100 100 100 58 22 99 100 100 99 100 91 100 98 28 0 0 0 0 0 0 0 0 0 0 0 0 0 0 0 0 0 0 0 0 0 0 0 0 0 0 0 0 0 50 100
100 100 100 100 100 99 25 0 62 74 30 100 46 100 97 0 0 0 0 0 0 0 0 0 0 0 0 0 0 0 0 0 0 0 0 0 0 0 0 0 0 0 0 0 1 0 100
94 100 100 100 100 100 100 100 59 4 34 88 20 96 4 0 0 0 0 0 0 0 0 0 0 0 0 0 0 0 0 0 0 0 0 0 0 0 0 0 0 0 0 5 4 1 100
100 100 100 100 100 100 100 100 100 77 52 1 12 0 0 0 0 0 0 0 0 0 0 0 0 0 0 0 0 0 2 13 8 2 0 0 0 0 0 0 1 3 1 0 1 0 33
100 100 100 100 100 100 100 100 100 99 25 3 0 0 0 0 0 0 0 0 0 0 4 2 0 0 0 0 1 5 5 8 43 4 0 0 0 0 0 0 3 0 0 1 1 6 5
100 100 100 100 100 100 100 100 100 100 69 16 7 5 5 0 3 5 5 5 5 5 5 5 4 4 5 5 3 3 0 0 2 0 0 0 0 0 0 1 5 25 0 0 2 4 5
100 100 100 100 100 100 100 100 100 100 100 94 89 7 5 9 5 5 8 5 5 20 13 39 5 5 5 5 2 5 5 6 54 4 0 0 0 2 1 0 12 79 5 3 5 99 5
100 100 100 100 100 100 100 100 100 100 100 100 100 100 100 6 10 12 62 100 15 91 69 31 5 5 7 5 3 5 4 21 27 4 0 0 1 0 7 14 88 5 14 4 2 93 100
100 100 100 100 100 100 100 100 100 100 100 100 100 100 100 96 17 22 67 77 46 91 96 100 94 12 5 4 5 5 66 78 5 4 0 5 0 0 13 100 93 31 5 5 18 33 100
100 100 100 100 100 100 100 100 100 100 100 100 100 100 100 100 93 95 94 46 59 92 100 100 64 32 6 4 8 9 11 16 5 5 3 9 0 0 5 43 87 8 32 94 78 60 99
100 100 100 100 100 100 100 100 100 100 100 100 100 100 100 98 76 100 100 100 100 100 100 100 100 75 5 6 16 5 46 5 5 5 5 0 0 0 7 81 27 100 38 100 100 100 100
100 100 100 100 100 100 100 100 100 100 100 100 100 100 100 100 100 100 100 100 100 100 100 100 100 56 12 92 11 5 5 5 1 5 5 0 0 2 4 50 98 33 96 100 100 100 100
100 100 100 100 100 100 100 100 100 100 100 100 100 100 100 100 100 100 100 100 96 100 100 100 100 78 60 39 5 5 11 5 5 5 0 0 3 61 34 94 70 66 100 100 100 100 100
100 100 100 100 98 99 100 100 100 100 100 100 100 100 100 100 100 100 100 100 100 100 100 100 100 96 58 7 45 15 33 12 5 3 0 2 20 82 79 89 90 100 89 100 100 100 100
100 100 100 100 100 88 100 100 100 100 100 100 100 100 100 100 100 100 100 100 100 100 100 100 100 95 84 74 100 77 52 5 5 5 0 2 78 91 81 76 98 100 100 100 100 100 100
100 100 100 100 52 64 100 100 100 100 100 100 100 100 100 100 100 100 100 100 100 100 100 100 100 87 100 100 89 71 5 5 5 0 0 1 6 4 10 99 95 100 100 100 100 100 100
100 100 100 49 65 21 65 100 100 100 100 100 100 100 100 100 100 100 99 100 100 100 100 100 100 100 100 100 86 40 5 27 5 4 0 2 5 5 2 4 62 100 100 100 100 100 100
100 98 100 47 5 25 50 100 100 100 100 100 100 100 100 100 100 100 100 100 100 100 100 100 100 100 100 100 98 35 5 5 5 4 4 5 3 4 5 5 1 99 100 100 100 100 100

GFSGBSN_prec_cloud_123.txt.gz
Cloud_Cover
100 100 100 100 100 100 100 100 100 100 100 100 100 78 16 0 0 0 0 0 0 18 7 1 0 0 2 0 0 0 0 0 0 0 0 0 0 4 100 42 41 69 44 100 65 44 98
100 100 100 100 100 100 100 100 100 100 100 100 100 100 99 23 9 0 0 0 9 1 11 1 0 24 0 0 0 0 0 0 0 0 0 0 0 5 49 2 52 100 26 76 94 100 73
4 45 94 98 100 100 100 100 100 100 100 100 100 100 100 71 21 12 4 8 8 6 5 2 0 0 0 0 0 0 0 0 0 0 0 0 0 0 5 4 0 24 23 66 100 95 96
4 2 2 1 64 100 100 100 100 100 100 100 100 100 100 100 100 46 15 0 0 23 0 0 3 0 0 0 0 0 0 0 0 0 0 0 0 0 1 2 4 4 87 18 57 94 84
90 44 35 17 1 36 93 100 100 100 100 100 100 100 100 100 100 100 23 0 0 0 0 1 8 0 0 0 0 0 0 0 0 0 0 0 0 0 0 0 22 15 88 97 8 43 61
100 100 100 100 79 33 0 26 40 98 100 100 100 100 100 100 100 77 2 11 2 53 18 0 0 0 0 0 0 0 0 0 0 0 0 0 0 0 1 1 14 86 25 16 63 12 72
100 100 100 100 100 100 100 100 50 0 100 100 100 100 100 100 71 0 41 0 0 0 0 0 0 0 0 0 0 0 0 0 0 0 0 0 0 0 0 3 29 2 86 42 77 0 33
100 100 100 85 100 100 99 2 35 99 100 1 0 84 98 38 0 4 12 0 0 0 0 0 0 0 0 0 0 0 0 0 0 0 0 0 0 0 0 4 4 0 4 15 31 0 36
100 100 100 100 93 100 100 84 14 0 20 0 17 31 48 14 10 20 0 0 0 0 0 0 0 0 0 0 0 0 0 0 0 0 0 0 0 0 0 0 0 0 5 90 86 1 2
99 87 77 100 100 99 100 100 100 100 35 1 100 99 3 32 9 0 0 0 0 0 0 0 0 0 0 0 0 0 0 0 0 0 0 0 0 0 0 0 0 0 3 1 5 5 96
99 94 48 5 33 100 100 100 100 100 100 100 76 0 6 50 0 0 0 0 0 0 8 0 0 0 0 0 0 0 0 0 0 0 0 0 0 0 0 0 0 0 4 0 5 5 69
100 100 100 100 98 97 99 98 86 100 38 51 3 0 31 0 0 0 0 0 0 0 4 0 0 0 0 0 0 0 0 0 0 0 0 0 0 0 0 0 0 0 0 0 5 54 75
100 100 100 100 100 100 100 100 100 60 7 5 14 13 40 3 1 0 0 0 0 0 0 0 0 0 0 0 0 0 0 0 1 0 0 0 0 0 0 0 0 0 0 4 65 81 9
98 100 100 100 100 100 100 100 100 100 100 95 6 76 5 5 5 5 0 0 0 1 0 0 0 0 0 0 0 0 0 4 0 0 3 0 2 0 0 0 4 0 0 35 100 100 84
95 100 98 100 100 100 99 100 100 100 100 100 100 100 66 29 5 5 5 1 0 3 0 0 0 0 2 0 2 0 1 33 5 0 2 5 4 0 0 0 0 39 6 3 95 47 98
100 100 100 100 100 100 98 81 100 100 100 100 100 100 100 100 61 10 15 5 4 1 0 0 0 0 5 5 1 1 18 4 5 0 0 5 3 4 5 0 4 10 33 14 27 79 100
100 100 100 100 100 99 87 79 93 96 100 100 100 96 100 100 100 100 98 9 5 5 4 0 0 0 0 1 5 21 6 23 0 0 0 4 2 91 4 4 20 36 12 95 100 44 35
39 83 43 100 45 76 100 9 55 62 100 100 100 63 100 100 100 100 100 100 100 9 5 5 5 5 5 5 5 5 5 58 72 100 5 45 4 15 95 100 48 91 74 34 93 98 76
100 4 28 49 100 99 100 19 5 10 91 65 98 93 100 69 100 100 100 100 100 100 67 5 5 5 5 5 5 5 5 17 5 5 5 5 3 1 7 26 54 44 4 56 100 14 74
100 12 25 89 76 94 74 13 5 10 37 93 70 100 100 100 100 100 100 100 100 100 100 36 5 5 5 5 5 5 5 5 5 5 3 3 0 0 0 79 22 8 5 0 19 100 100
96 66 100 100 100 53 28 5 5 5 68 43 99 100 88 100 100 100 100 100 100 100 100 99 7 5 8 28 57 10 5 7 5 5 4 5 0 0 1 5 4 5 10 91 97 18 100
78 100 90 78 56 55 19 5 74 31 40 58 85 99 95 100 100 100 100 100 100 100 80 92 24 25 64 100 100 100 99 85 62 6 5 5 3 0 0 2 1 0 3 14 100 100 4
99 100 86 90 49 24 6 5 61 5 21 73 95 100 100 100 100 100 100 100 100 100 100 100 36 60 63 98 80 98 100 96 22 5 5 5 5 49 98 100 63 48 27 12 94 93 4
66 75 77 100 30 91 84 55 69 5 37 89 66 100 100 100 100 100 100 100 100 100 100 100 64 90 79 100 51 100 73 5 5 5 5 5 5 4 2 41 67 67 28 33 83 21 56
59 100 10 100 100 100 99 90 100 8 9 86 96 100 100 100 100 100 100 100 100 100 100 100 100 99 84 50 100 100 35 9 5 5 5 4 5 12 100 98 70 98 91 100 100 6 9
100 92 98 100 100 100 100 55 100 99 55 90 100 100 100 100 100 100 100 100 100 100 100 100 100 100 99 50 100 100 100 100 59 5 46 12 5 3 20 94 8 100 100 100 100 67 4
44 90 58 100 100 100 100 100 36 100 76 60 100 100 100 100 100 100 100 100 100 100 100 100 100 100 100 100 100 100 100 84 44 86 100 62 6 64 95 100 26 100 88 86 87 58 5
98 40 74 100 100 100 100 100 99 100 100 62 100 98 91 100 100 100 100 100 100 100 100 100 100 100 100 100 100 95 94 96 99 100 42 96 93 100 68 86 77 100 4 6 57 100 100
99 40 100 100 100 100 100 100 100 100 100 100 91 97 100 100 100 100 100 100 100 100 100 100 100 100 100 100 100 100 100 100 100 100 48 15 98 88 100 93 9 3 1 25 85 20 64